Terminal Aerodrome Forecast
Issued by NWS Spokane, WA

Home | Current Version | Previous Version | Text Only | Print | Product List | Glossary On
Versions: 1 2 3 4 5 6 7 8 9 10 11 12 13 14 15 16 17 18 19 20 21 22 23 24 25 26 27 28 29 30 31 32 33 34 35 36 37 38 39 40 41 42 43 44 45 46
000
FTUS46 KOTX 050042 AAA
TAFGEG
TAF AMD
KGEG 050042Z 0501/0524 32008KT 2SM -SNGS BKN030 OVC070
     FM050115 32010KT P6SM SCT030 BKN080
     FM050500 23007KT P6SM SKC
     FM051400 19006KT P6SM SCT014=

USA.gov is the U.S. government's official web portal to all federal, state and local government web resources and services.